Location: Buttermere
(51.3333°N, 1.5167°W)
Time: 12:27:18
(UTC+00:00)

Resurs 01 Rocket - Pass Details

Date: 18 September 2020
Orbit: 633 x 645 km, 98.0° (Epoch: 23 October)

Event Time Altitude Azimuth Distance (km) Brightness Sun altitude
Exits shadow 20:56:49 45° 217° (SW) 887 2.2 -24.6°
Maximum altitude 20:57:45 54° 259° (W) 790 2.2 -24.7°
Drops below altitude 10° 21:02:09 10° 338° (NNW) 2,054 5.0 -25.2°
Sets 21:04:25 0° 343° (NNW) 2,967 5.9 -25.5°
